Flag for Sweden Weather past 2 weeks in Gävle, Sweden

Now
65 °F

Mild.


Feels Like: 65 °F
Forecast: 51 / 67 °F
Wind: 3 mph from West

Location: Films Kyrkby

Current Time: Aug 22, 2014 at 1:59:32 PM

Latest Report: Aug 22, 2014 at 1:00 PM


Visibility: 22 mi

Pressure: 29.69 "Hg

Humidity: 64%

Dew point: 52 °F

Location of GävleLocation

Historic Weather in Gävle — Graph

°F

Gävle temperature yesterday

Maximum temperature yesterday: 67 °F (at 2:00 PM)
Minimum temperature yesterday: 49 °F (at 3:00 AM)
Average temperature yesterday: 55 °F

Past Weeks' High & Low Weather Summary

 TemperatureHumidityPressure
High81 °F (Aug 9, 4:00 PM)99% (Aug 15, 6:00 AM)29.91 "Hg (Aug 15, 6:00 AM)
Low47 °F (Aug 19, 4:00 AM)35% (Aug 8, 6:00 PM)29.29 "Hg (Aug 18, 7:00 AM)
Average61 °F81%29.63 "Hg
* Reported Aug 7 12:00 Noon — Aug 22 12:00 Noon, Gävle, Weather by CustomWeather, © 2014

Note: Actual official high and low records may vary slightly from our data, if they occured in-between our weather recording intervals... More about our weather records

Advertising

Gävle weather history for previous 24 hours

 ConditionsComfort  
Time TempWeatherWind HumidityBarometerVisibility
12:00 PM
Aug 22
65 °FMild.5 mph66%29.69 "Hg25 mi
11:00 AM60 °FCool.3 mph79%29.70 "Hg22 mi
10:00 AM57 °FCool.3 mph86%29.70 "Hg28 mi
9:00 AM56 °FCool.2 mph91%29.67 "Hg28 mi
8:00 AM53 °FCool.2 mph94%29.67 "Hg31 mi
7:00 AM53 °FCool.2 mph96%29.66 "Hg31 mi
6:00 AM51 °FCool.1 mph97%29.66 "Hg28 mi
5:00 AM52 °FCool.1 mph97%29.65 "Hg31 mi
4:00 AM53 °FCool.2 mph97%29.65 "Hg31 mi
3:00 AM51 °FCool.2 mph98%29.65 "Hg14 mi
2:00 AM50 °FCool.1 mph97%29.65 "Hg19 mi
1:00 AM49 °FCool.1 mph97%29.65 "Hg28 mi
12:00 AM49 °FCool.1 mph97%29.65 "Hg31 mi
11:00 PM
Aug 21
49 °FCool.1 mph96%29.65 "Hg7 mi
10:00 PM52 °FCool.1 mph94%29.64 "Hg25 mi
9:00 PM54 °FCool.2 mph95%29.63 "Hg28 mi
8:00 PM56 °FCool.2 mph92%29.63 "Hg31 mi
7:00 PM57 °FCool.2 mph90%29.63 "Hg28 mi
6:00 PM57 °FCool.2 mph88%29.63 "Hg31 mi
5:00 PM56 °FRain showers. Cloudy.2 mph88%29.63 "Hg31 mi
4:00 PM61 °FCool.3 mph78%29.63 "Hg25 mi
3:00 PM63 °FRain showers. Cloudy.6 mph67%29.62 "Hg22 mi
2:00 PM67 °FMild.5 mph64%29.62 "Hg25 mi
1:00 PM62 °FLots of rain. Cloudy.2 mph83%29.61 "Hg11 mi
Weather by CustomWeather, © 2014

See weather overviewHow to use our weather pages